Back to catalog

COSMOS 2251 DEB

AliveLEO
NORAD 40793·DEBRIS·🇷🇺 Russia

Launched Jun 16, 1993 from Plesetsk Cosmodrome

Loading…

Next Passes (next 24 hours)

TLE

FreshSource: Space-Track

Epoch: Sep 13, 2026, 16:46 UTC

1 40793U 93036BVW 26256.69869192  .00000578  00000-0  29676-3 0  9998
2 40793  73.9796  42.3389 0212832 138.5037 223.2484 14.06388080721104

Track COSMOS 2251 DEB in real time with AllMySat

Download on the App Store